[[{"header":{"parameterUnit":"m.s-1","parameterCategory":1,"la1":30.2991,"la2":30.254,"lo1":-89.0895,"lo2":-89.0444,"dy":0.0017,"dx":0.0017,"nx":28,"ny":28,"refTime":"2026-03-05T09:00:00:Z","depth":0,"parameterNumber":2,"parameterNumberName":"U-component_of_WINDS"},"data":[0,0,0,0,0,0,0,0,0,0,0,0,0,0,0,0,0,0,0,0,0,0,0,0,0,0,0,0,0,0,0,0,0,0,0,0,0,0,0,0,0,0,0,0,0,0,0,0,0,0,0,0,0,0,0,0,0,0,-4.0985,-4.0986,0,-4.1055,-4.1056,-4.1057,-4.1026,-4.1024,-4.1023,-4.1021,-4.1093,-4.1096,-4.11,0,0,0,0,0,0,0,0,0,0,0,0,0,-4.0826,-4.0829,-4.0985,-4.0986,-4.0987,-4.1055,-4.1056,-4.1057,-4.1026,-4.1024,-4.1022,-4.102,-4.1092,-4.1096,-4.11,0,0,0,0,0,0,0,0,0,0,0,0,0,-4.0896,-4.083,-4.0985,-4.098,-4.098,-4.1055,-4.1056,-4.1057,-4.1027,-4.1024,-4.1022,-4.1019,-4.109,-4.1095,-4.1101,-4.1185,0,0,-4.1117,-4.1119,0,0,0,0,0,0,0,0,-4.0892,-4.0901,-4.098,-4.098,-4.0981,-4.1029,-4.1026,-4.11,-4.1027,-4.1009,-4.1021,-4.1018,-4.1074,-4.108,-4.1099,-4.1188,-4.1191,-4.1117,-4.112,-4.1123,-4.1124,0,0,0,0,0,0,0,-4.0887,-4.0898,-4.1013,-4.0981,-4.0981,-4.0974,-4.0981,-4.104,-4.1055,-4.101,-4.1008,-4.1017,-4.1074,-4.1094,-4.1101,-4.1192,-4.1117,-4.1122,-4.1125,-4.1127,-4.1355,-4.1358,0,0,0,0,0,0,-4.0882,-4.0894,-4.1011,-4.1015,-4.0929,-4.0979,-4.0987,-4.1016,-4.1054,-4.1058,-4.1019,-4.1015,-4.1086,-4.1094,-4.1103,-4.1204,-4.1123,-4.1128,-4.1131,-4.1352,-4.1356,-4.1359,0,0,0,0,0,0,-4.0879,-4.0893,-4.1008,-4.0954,-4.0968,-4.0985,-4.1018,-4.1019,-4.1039,-4.1061,-4.1063,-4.1037,-4.1085,-4.1096,-4.1165,-4.1206,-4.113,-4.1135,-4.1349,-4.1353,-4.1357,-4.1406,0,0,0,0,0,0,-4.0874,-4.0892,-4.0923,-4.0955,-4.0971,-4.1068,-4.102,-4.1022,-4.1049,-4.1044,-4.1079,-4.1082,-4.1083,-4.1157,-4.117,-4.1212,-4.1139,-4.1345,-4.1351,-4.1356,-4.1401,-4.1411,-4.1421,0,0,0,0,0,-4.0869,-4.0934,-4.0925,-4.0939,-4.1011,-4.107,-4.108,-4.108,-4.1052,-4.1084,-4.1098,-4.1081,-4.12,-4.1165,-4.1179,-4.1223,-4.1343,-4.1349,-4.1356,-4.1396,-4.1409,-4.142,0,0,0,0,0,0,-4.0905,-4.0938,-4.0928,-4.1006,-4.1036,-4.1065,-4.1105,-4.1094,-4.1132,-4.1127,-4.1126,-4.1134,-4.1206,-4.1222,-4.1182,-4.1307,-4.1267,-4.1277,-4.1293,-4.1306,-4.1315,-4.1309,-4.1143,0,0,0,0,0,-4.0923,-4.0968,-4.0994,-4.106,-4.1076,-4.1088,-4.1114,-4.1112,-4.1143,-4.1156,-4.1175,-4.1206,-4.125,-4.1279,-4.1321,-4.1404,-4.1411,-4.1442,-4.1451,-4.146,-4.1467,-4.1512,-4.1526,-4.138,-4.138,-4.138,0,0,-4.0958,-4.0982,-4.101,-4.1068,-4.1091,-4.1138,-4.1099,-4.115,-4.1185,-4.1163,-4.1229,-4.1245,-4.128,-4.1356,-4.1391,-4.1372,-4.1509,-4.1468,-4.1474,-4.1477,-4.152,-4.1534,-4.1546,-4.1385,-4.1384,-4.1383,0,0,-4.1047,-4.107,-4.1127,-4.1152,-4.1187,-4.1195,-4.121,-4.1242,-4.1251,-4.1318,-4.1303,-4.1345,-4.1422,-4.1447,-4.147,-4.1572,-4.1557,-4.1586,-4.1637,-4.1681,-4.1692,-4.1702,-4.1737,-4.175,-4.1594,-4.1594,-4.1594,0,-4.1086,-4.1156,-4.1158,-4.1211,-4.1237,-4.1221,-4.1279,-4.1303,-4.135,-4.1369,-4.1347,-4.1444,-4.1466,-4.1548,-4.1573,-4.1593,-4.1609,-4.158,-4.169,-4.1701,-4.171,-4.1743,-4.1757,-4.1597,-4.1597,-4.1597,-4.1596,0,-4.1203,-4.1252,-4.1295,-4.1341,-4.1372,-4.1428,-4.1438,-4.147,-4.1467,-4.1478,-4.1547,-4.1573,-4.1621,-4.1641,-4.1638,-4.1723,-4.171,-4.169,-4.1649,-4.1727,-4.1758,-4.1771,-4.1602,-4.1601,-4.16,-4.1599,0,0,-4.1313,-4.1362,-4.1377,-4.1398,-4.1438,-4.1476,-4.1532,-4.1579,-4.1606,-4.1641,-4.1687,-4.1753,-4.1735,-4.1761,-4.1762,-4.1801,-4.1879,-4.1776,-4.1776,-4.1792,-4.1974,-4.1987,-4.2002,-4.1871,-4.1873,-4.1875,-4.1971,0,-4.1403,-4.1499,-4.1504,-4.1592,-4.1637,-4.1624,-4.1673,-4.1703,-4.1716,-4.1757,-4.1771,-4.1818,-4.1791,-4.1807,-4.1845,-4.1861,-4.1915,-4.1855,-4.1913,-4.1915,-4.1902,-4.2019,-4.2032,-4.2121,-4.1983,-4.1985,-4.1987,0,-4.152,-4.1559,-4.1651,-4.1685,-4.1705,-4.1748,-4.1792,-4.1832,-4.1866,-4.1873,-4.1904,-4.1899,-4.1957,-4.1917,-4.1997,-4.1956,-4.1981,-4.1993,-4.1996,-4.1999,-4.1953,-4.2023,-4.2149,-4.2161,-4.2006,-4.2005,-4.2003,0,-4.1589,-4.1665,-4.1729,-4.1749,-4.1791,-4.1821,-4.1841,-4.1873,-4.1901,-4.194,-4.1958,-4.2004,-4.2029,-4.2064,-4.2072,-4.2043,-4.2152,-4.2113,-4.2158,-4.2158,-4.2179,-4.2177,-4.2308,-4.22,-4.2199,-4.2199,-4.2199,0,-4.1687,-4.1744,-4.1761,-4.1801,-4.1864,-4.187,-4.1933,-4.195,-4.198,-4.2023,-4.2016,-4.2057,-4.2066,-4.211,-4.2117,-4.2181,-4.2193,-4.22,-4.22,-4.2199,-4.2198,-4.2213,-4.2206,-4.2203,-4.2202,-4.2201,-4.2201,0,-4.1773,-4.1787,-4.1857,-4.1892,-4.1902,-4.1948,-4.1978,-4.2016,-4.203,-4.2085,-4.2098,-4.2119,-4.217,-4.2182,-4.2243,-4.2248,-4.2323,-4.232,-4.2311,-4.231,-4.2354,-4.2349,-4.2498,-4.2517,-4.2398,-4.2399,-4.24,0,-4.1833,-4.1877,-4.1917,-4.1946,-4.1966,-4.2013,-4.2042,-4.205,-4.2081,-4.2125,-4.2159,-4.2209,-4.2249,-4.2331,-4.2351,-4.2398,-4.2394,-4.2443,-4.24,-4.2398,-4.2392,-4.2388,-4.2392,-4.245,-4.2451,-4.2452,-4.2453,0,-4.1939,-4.1944,-4.1986,-4.2032,-4.2067,-4.2103,-4.2138,-4.2162,-4.2175,-4.2211,-4.2262,-4.2294,-4.2356,-4.2406,-4.2454,-4.2474,-4.2466,-4.2467,-4.2479,-4.2476,-4.2469,-4.2472,-4.2331,-4.2462,-4.2461,-4.2461,-4.246,-4.246,-4.2012,-4.205,-4.2085,-4.2132,-4.216,-4.2193,-4.2231,-4.225,-4.2293,-4.2344,-4.2348,-4.2404,-4.244,-4.2503,-4.2526,-4.2571,-4.2556,-4.2574,-4.2579,-4.2582,-4.2585,-4.2465,-4.258,-4.258,-4.2579,-4.2579,-4.2579,0,-4.2115,-4.2138,-4.2182,-4.2231,-4.2269,-4.226,-4.2298,-4.233,-4.238,-4.2414,-4.2454,-4.2514,-4.2563,-4.2589,-4.2638,-4.2669,-4.2666,-4.2681,-4.2677,-4.2682,-4.2597,-4.258,-4.2682,-4.2682,-4.2682,-4.2682,-4.2682,-4.2682,-4.2173,-4.2237,-4.2247,-4.2325,-4.2347,-4.2402,-4.2424,-4.2455,-4.2482,-4.255,-4.2591,-4.2608,-4.2639,-4.269,-4.2735,-4.2741,-4.2759,-4.2775,-4.278,-4.2699,-4.2688,-4.2678,-4.2662,-4.278,-4.278,-4.2861,-4.2861,-4.2862]},{"header":{"parameterUnit":"m.s-1","parameterCategory":1,"la1":30.2991,"la2":30.254,"lo1":-89.0895,"lo2":-89.0444,"dy":0.0017,"dx":0.0017,"nx":28,"ny":28,"refTime":"2026-03-05T09:00:00:Z","depth":0,"parameterNumber":3,"parameterNumberName":"V-component_of_WINDS"},"data":[0,0,0,0,0,0,0,0,0,0,0,0,0,0,0,0,0,0,0,0,0,0,0,0,0,0,0,0,0,0,0,0,0,0,0,0,0,0,0,0,0,0,0,0,0,0,0,0,0,0,0,0,0,0,0,0,0,0,2.0555,2.0556,0,2.0616,2.0617,2.0618,2.0636,2.0636,2.0636,2.0635,2.0697,2.0699,2.07,0,0,0,0,0,0,0,0,0,0,0,0,0,2.0455,2.0457,2.0555,2.0556,2.0557,2.0616,2.0617,2.0618,2.0636,2.0636,2.0636,2.0635,2.0696,2.0698,2.0701,0,0,0,0,0,0,0,0,0,0,0,0,0,2.0505,2.0457,2.0555,2.0573,2.0575,2.0616,2.0617,2.0618,2.0636,2.0636,2.0635,2.0635,2.0695,2.0698,2.0701,2.0728,0,0,2.071,2.0711,0,0,0,0,0,0,0,0,2.0503,2.0509,2.057,2.0572,2.0574,2.0618,2.0604,2.0655,2.0637,2.0613,2.0635,2.0635,2.0671,2.0676,2.0688,2.0731,2.0733,2.071,2.0712,2.0713,2.0714,0,0,0,0,0,0,0,2.0499,2.0507,2.0579,2.057,2.0573,2.0578,2.0585,2.0614,2.0644,2.0615,2.0617,2.0624,2.0672,2.0685,2.069,2.0734,2.071,2.0712,2.0714,2.0715,2.0805,2.0805,0,0,0,0,0,0,2.0493,2.0504,2.0577,2.0581,2.0537,2.0581,2.0588,2.0605,2.0643,2.0649,2.0624,2.0624,2.0681,2.0686,2.0692,2.0728,2.0713,2.0716,2.0717,2.0804,2.0805,2.0806,0,0,0,0,0,0,2.049,2.0499,2.0575,2.0543,2.0553,2.0583,2.0601,2.0606,2.0619,2.065,2.0656,2.0632,2.0681,2.0688,2.072,2.073,2.0717,2.072,2.0803,2.0804,2.0805,2.0799,0,0,0,0,0,0,2.0487,2.0498,2.0508,2.0543,2.0555,2.0601,2.0602,2.0608,2.0624,2.0625,2.0659,2.0664,2.0681,2.0715,2.0722,2.0734,2.0722,2.0803,2.0804,2.0805,2.0798,2.0799,2.08,0,0,0,0,0,2.0484,2.0503,2.0508,2.0517,2.0568,2.0602,2.0608,2.0627,2.0625,2.0636,2.0656,2.0663,2.0728,2.0718,2.0726,2.0739,2.0802,2.0804,2.0805,2.0797,2.0799,2.08,0,0,0,0,0,0,2.0467,2.0507,2.0514,2.0545,2.057,2.0605,2.0619,2.0628,2.0653,2.0653,2.0675,2.0682,2.0713,2.0729,2.0718,2.0769,2.0765,2.0768,2.0757,2.0758,2.076,2.0755,2.0724,0,0,0,0,0,2.0467,2.0491,2.0525,2.0549,2.0562,2.0588,2.0603,2.0616,2.0643,2.0653,2.0675,2.0701,2.0727,2.0743,2.0769,2.0801,2.0809,2.0814,2.0815,2.0816,2.0818,2.0838,2.0841,2.0811,2.0811,2.0811,0,0,2.0467,2.0492,2.0506,2.0547,2.0567,2.0593,2.0597,2.0622,2.0641,2.0657,2.0688,2.0706,2.0736,2.0768,2.0783,2.0783,2.0829,2.0817,2.0818,2.082,2.084,2.0843,2.0846,2.0812,2.0811,2.0811,0,0,2.048,2.0501,2.0525,2.0546,2.0578,2.0596,2.0602,2.0636,2.0649,2.0681,2.0694,2.0717,2.0761,2.0783,2.0799,2.0824,2.0832,2.0832,2.0838,2.0857,2.086,2.0862,2.0873,2.0876,2.0834,2.0834,2.0834,0,2.0476,2.0514,2.0535,2.0562,2.058,2.0596,2.0621,2.0641,2.0679,2.0692,2.069,2.0748,2.0769,2.0808,2.0814,2.0827,2.0835,2.0828,2.0858,2.086,2.0863,2.0873,2.0877,2.0834,2.0834,2.0834,2.0834,0,2.0509,2.0535,2.055,2.0589,2.0609,2.0634,2.066,2.0678,2.0689,2.0708,2.0742,2.0768,2.0801,2.0811,2.0822,2.0852,2.0851,2.0854,2.0851,2.0865,2.0875,2.0879,2.0834,2.0834,2.0834,2.0834,0,0,2.0511,2.0563,2.0568,2.0587,2.0625,2.0646,2.0673,2.0706,2.0722,2.0748,2.0772,2.0811,2.0814,2.0833,2.0847,2.0864,2.0885,2.0865,2.0866,2.0869,2.0922,2.0921,2.0925,2.0891,2.0891,2.0892,2.092,0,2.053,2.0578,2.06,2.0639,2.0665,2.0683,2.0707,2.0733,2.0751,2.0777,2.0797,2.0825,2.0827,2.0839,2.0856,2.0878,2.0896,2.0877,2.0914,2.0915,2.0906,2.093,2.0927,2.0952,2.0924,2.0925,2.0925,0,2.0557,2.0586,2.0628,2.0666,2.0678,2.0699,2.0732,2.0756,2.0787,2.0799,2.0822,2.0836,2.0866,2.0862,2.0904,2.0891,2.0907,2.0921,2.0922,2.0927,2.0921,2.0936,2.0961,2.0965,2.0931,2.0931,2.093,0,2.0556,2.0605,2.0638,2.0653,2.0698,2.0712,2.0731,2.0762,2.0782,2.0811,2.0824,2.0856,2.0874,2.0898,2.0921,2.0915,2.0962,2.0959,2.0974,2.0974,2.0983,2.0982,2.1012,2.0993,2.0992,2.0992,2.0992,0,2.0575,2.0601,2.0639,2.0658,2.0689,2.0713,2.0742,2.0763,2.0791,2.0816,2.0833,2.0856,2.0884,2.0911,2.0929,2.0962,2.097,2.0981,2.0986,2.098,2.0979,2.0992,2.0991,2.0993,2.0993,2.0993,2.0993,0,2.0579,2.0605,2.0642,2.0682,2.0693,2.0713,2.0748,2.0768,2.0789,2.0821,2.0829,2.0862,2.0895,2.092,2.0962,2.0974,2.1011,2.1015,2.1,2.1003,2.1017,2.1016,2.1057,2.1064,2.1039,2.1039,2.1039,0,2.0589,2.061,2.0653,2.0671,2.0691,2.072,2.0741,2.0767,2.0787,2.0826,2.0843,2.0877,2.0906,2.0959,2.0986,2.1019,2.1025,2.1037,2.103,2.1024,2.1027,2.1025,2.1029,2.1038,2.1038,2.1038,2.1038,0,2.0605,2.0618,2.0647,2.0682,2.0707,2.0735,2.0764,2.0778,2.081,2.0833,2.0868,2.089,2.0935,2.097,2.1006,2.1027,2.1038,2.1041,2.1046,2.1041,2.1032,2.1038,2.1004,2.1039,2.1039,2.1039,2.1039,2.1039,2.0613,2.0633,2.0668,2.0701,2.0726,2.0753,2.0775,2.08,2.083,2.0869,2.0883,2.0919,2.0952,2.1003,2.1024,2.1053,2.1053,2.1061,2.1063,2.1065,2.1065,2.1027,2.106,2.106,2.106,2.106,2.106,0,2.0631,2.0655,2.0685,2.0726,2.0753,2.0763,2.0796,2.0818,2.085,2.088,2.0909,2.0951,2.0985,2.1016,2.1053,2.107,2.1077,2.1079,2.1078,2.1083,2.1062,2.1054,2.1073,2.1073,2.1073,2.1073,2.1073,2.1073,2.0644,2.0679,2.0697,2.0746,2.0769,2.0806,2.0824,2.085,2.0875,2.0921,2.095,2.0971,2.1002,2.1042,2.1074,2.1083,2.1096,2.1097,2.1107,2.1086,2.1084,2.1083,2.1076,2.1099,2.1099,2.1126,2.1126,2.1126]}]]